Location: ?
(35.4064°N, 139.3593°E)
Time: 06:58:20
(UTC+00:00)

Hubble Space Telescope - Pass Details

Date: 10 December 2025
Orbit: 479 x 481 km, 28.5° (Epoch: 21 January)

Event Time Altitude Azimuth Distance (km) Brightness Sun altitude
Rises 09:03:05 0° 236° (SW) 2,535 5.6 -18.4°
Reaches altitude 10° 09:05:37 10° 221° (SW) 1,655 4.1 -18.9°
Maximum altitude 09:08:37 22° 169° (S) 1,093 2.3 -19.5°
Enters shadow 09:09:22 21° 151° (SSE) 1,137 2.3 -19.7°
